WetterOnline ( http://www.wetteronline.de )

Wetter aktuell Kassel

Aktuelles Wetter: Warburg (237m)

6-stündlich | Neueste Meldungen
Ortszeit Temperatur Wetter
Do, 19.07. 8:00 14.2° C leicht bewölkt
Do, 19.07. 2:00 14.8° C fast wolkenlos
Mi, 18.07. 20:00 23.0° C leicht bewölkt
Mi, 18.07. 14:00 24.1° C leicht bewölkt
Mi, 18.07. 8:00 15.9° C wolkenlos
Mi, 18.07. 2:00 17.0° C bedeckt
Di, 17.07. 20:00 26.4° C bewölkt
Di, 17.07. 14:00 28.2° C leicht bewölkt
Ortszeit Temperatur Wetter
Do, 19.07. 8:00 14.2° C leicht bewölkt
Do, 19.07. 7:50 14.2° C leicht bewölkt
Do, 19.07. 7:40 14.5° C leicht bewölkt
Do, 19.07. 7:30 13.9° C leicht bewölkt
Do, 19.07. 7:20 13.9° C leicht bewölkt
Do, 19.07. 7:10 13.3° C leicht bewölkt
Do, 19.07. 7:00 12.2° C fast wolkenlos
Do, 19.07. 6:30 10.3° C wolkig
Do, 19.07. 6:00 9.7° C wolkig
Do, 19.07. 5:30 9.3° C bedeckt
Do, 19.07. 5:00 10.3° C wolkig
Ortszeit Relative Feuchte Sichtweite
Do, 19.07. 8:00 72% 25 km
Do, 19.07. 2:00 69% 50 km
Mi, 18.07. 20:00 41% 40 km
Mi, 18.07. 14:00 40% 17 km
Mi, 18.07. 8:00 78% 12 km
Mi, 18.07. 2:00 86% 24 km
Di, 17.07. 20:00 36% 30 km
Di, 17.07. 14:00 26% 30 km
Ortszeit Relative Feuchte Sichtweite
Do, 19.07. 8:00 72% 25 km
Do, 19.07. 7:50 72% -
Do, 19.07. 7:40 73% -
Do, 19.07. 7:30 73% 20 km
Do, 19.07. 7:20 73% -
Do, 19.07. 7:10 77% -
Do, 19.07. 7:00 79% 17 km
Do, 19.07. 6:30 89% 12 km
Do, 19.07. 6:00 93% 11 km
Do, 19.07. 5:30 93% 10 km
Do, 19.07. 5:00 92% 14 km
Ortszeit Niederschlagsmenge Niederschlagsart
Do, 19.07. 8:00 0.0 l/m2 in 12 Std. -
Do, 19.07. 2:00 0.0 l/m2 in 6 Std. -
Mi, 18.07. 20:00 0.0 l/m2 in 12 Std. -
Mi, 18.07. 14:00 0.0 l/m2 in 6 Std. -
Mi, 18.07. 8:00 0.2 l/m2 in 12 Std. Sprühregen
Mi, 18.07. 2:00 0.2 l/m2 in 6 Std. Regen
Di, 17.07. 20:00 0.2 l/m2 in 12 Std. Regen
Di, 17.07. 14:00 0.0 l/m2 in 6 Std. -
Ortszeit Niederschlagsmenge Niederschlagsart
Do, 19.07. 8:00 0.0 l/m2 in 1 Std. -
Do, 19.07. 7:50 keine Meldung -
Do, 19.07. 7:40 keine Meldung -
Do, 19.07. 7:30 0.0 l/m2 in 1 Std. -
Do, 19.07. 7:20 keine Meldung -
Do, 19.07. 7:10 keine Meldung -
Do, 19.07. 7:00 0.0 l/m2 in 1 Std. -
Do, 19.07. 6:30 0.0 l/m2 in 1 Std. -
Do, 19.07. 6:00 0.0 l/m2 in 1 Std. -
Do, 19.07. 5:30 0.0 l/m2 in 1 Std. -
Do, 19.07. 5:00 0.0 l/m2 in 1 Std. -
Ortszeit Stärke Spitze Richtung
km/h Bft. km/h Grad Sektor
Do, 19.07. 8:00 4 1 11 220° SW
Do, 19.07. 2:00 4 1 25 360° N
Mi, 18.07. 20:00 13 3 31 310° NW
Mi, 18.07. 14:00 18 3 40 300° NW
Mi, 18.07. 8:00 11 2 19 290° W
Mi, 18.07. 2:00 13 3 43 330° NW
Di, 17.07. 20:00 18 3 32 300° NW
Di, 17.07. 14:00 14 3 29 310° NW
Ortszeit Stärke Spitze Richtung
km/h Bft. km/h Grad Sektor
Do, 19.07. 8:00 4 1 4 220° SW
Do, 19.07. 7:50 4 1 - 220° SW
Do, 19.07. 7:40 0 0 - 120° SO
Do, 19.07. 7:30 0 0 4 - -
Do, 19.07. 7:20 0 0 - - -
Do, 19.07. 7:10 0 0 - 290° W
Do, 19.07. 7:00 4 1 11 280° W
Do, 19.07. 6:30 7 2 11 310° NW
Do, 19.07. 6:00 4 1 7 300° NW
Do, 19.07. 5:30 7 2 7 300° NW
Do, 19.07. 5:00 4 1 11 290° W
Ortszeit Untergrenze Bedeckung Gattung
total tief tief mittel hoch
Do, 19.07. 8:00 2700 m 2/8 1/8 - - -
Do, 19.07. 2:00 3300 m 1/8 1/8 - - -
Mi, 18.07. 20:00 2400 m 3/8 1/8 - - -
Mi, 18.07. 14:00 1500 m 4/8 - - - -
Mi, 18.07. 8:00 - 0/8 0/8 - - -
Mi, 18.07. 2:00 2100 m 8/8 8/8 - - -
Di, 17.07. 20:00 3300 m 7/8 7/8 - - -
Di, 17.07. 14:00 8100 m 8/8 0/8 - - -
Ortszeit Bedeckungsgrad in Achtel und Wolkenuntergrenze
Do, 19.07. 8:00 1(2700m)
Do, 19.07. 7:50 1(2700m) 2(10500m)
Do, 19.07. 7:40 1(2700m) 2(10500m)
Do, 19.07. 7:30 1(2100m) 1(2700m) 2(10500m)
Do, 19.07. 7:20 1(2100m) 2(2700m)
Do, 19.07. 7:10 1(2100m) 2(2700m)
Do, 19.07. 7:00 1(3000m) 2(3000m)
Do, 19.07. 6:30 3(2700m) 9 9
Do, 19.07. 6:00 3(3000m) 9 9
Do, 19.07. 5:30 9 9 9
Do, 19.07. 5:00 2(3300m)
Ortszeit Luftdruck NN (hPa) Tendenz (hPa in 3 Std.)
Do, 19.07. 8:00 1020 + 0,1
Do, 19.07. 2:00 1019 + 0,8
Mi, 18.07. 20:00 1017 - 0,2
Mi, 18.07. 14:00 1018 - 0,1
Mi, 18.07. 8:00 1018 + 0,9
Mi, 18.07. 2:00 1017 + 1,9
Di, 17.07. 20:00 1013 - 0,3
Di, 17.07. 14:00 1013 0,0
Ortszeit Luftdruck NN (hPa) Tendenz (hPa in 3 Std.)
Do, 19.07. 8:00 1020 + 0,1
Do, 19.07. 7:50 1020 keine Meldung
Do, 19.07. 7:40 1020 keine Meldung
Do, 19.07. 7:30 1020 + 0,4
Do, 19.07. 7:20 1020 keine Meldung
Do, 19.07. 7:10 1020 keine Meldung
Do, 19.07. 7:00 1020 + 0,4
Do, 19.07. 6:30 1020 + 0,2
Do, 19.07. 6:00 1020 + 0,2
Do, 19.07. 5:30 1020 + 0,2
Do, 19.07. 5:00 1020 + 0,2
Ortszeit Schneehöhe (cm)
Do, 19.07. 8:00 -
Do, 19.07. 2:00 -
Mi, 18.07. 20:00 -
Mi, 18.07. 14:00 -
Mi, 18.07. 8:00 -
Mi, 18.07. 2:00 -
Di, 17.07. 20:00 -
Di, 17.07. 14:00 -
Ortszeit Schneehöhe (cm)
Do, 19.07. 8:00 -
Do, 19.07. 7:50 -
Do, 19.07. 7:40 -
Do, 19.07. 7:30 -
Do, 19.07. 7:20 -
Do, 19.07. 7:10 -
Do, 19.07. 7:00 -
Do, 19.07. 6:30 -
Do, 19.07. 6:00 -
Do, 19.07. 5:30 -
Do, 19.07. 5:00 -
Link zu dieser Seite / Seite empfehlen

Das Wetter in ...